Weather Roundup
Issued by NWS Springfield, MO

Home | Current Version | Previous Version | Text Only | Print | Product List | Glossary On
Versions: 1 2 3 4 5 6 7 8 9 10 11 12 13 14 15 16 17 18 19 20 21 22 23 24 25 26 27 28 29 30 31 32 33 34 35 36 37 38 39 40 41 42 43 44 45 46 47 48 49 50
000
NZUS99 KSGF 210307
HRRSGF

HOURLY WEATHER
NATIONAL WEATHER SERVICE SPRINGFIELD MO
1000 PM CDT SUN MAY 20 2018

......SGF CWA......

CITY           SKY/WX    TMP DP  RH WIND       PRES   REMARKS
SPRINGFIELD    CLOUDY    68  65  90 SE5       30.02S
JOPLIN         PTCLDY    68  67  96 CALM      30.03R
WEST PLAINS    LGT RAIN  66  64  93 CALM      30.11R
ROLLA          TSTM      64  63  96 S3        30.10R FOG
OSAGE BEACH    CLOUDY    65  64  97 SE7       30.04R
BRANSON        CLOUDY    66  66 100 CALM      30.07R

......SURROUNDING SGF CWA......

CITY           SKY/WX    TMP DP  RH WIND       PRES   REMARKS
CHANUTE        CLOUDY    65  63  93 NW8       30.04R
PARSONS        CLOUDY    63  62  97 NW3       30.05R
COFFEYVILLE    CLOUDY    65  62  90 N5        30.03R
EMPORIA        CLOUDY    62  58  86 NW3       30.06R
GROVE OK       CLOUDY    72  66  83 NW3       30.03S
ROGERS AR      CLOUDY    68  67  96 SE7       30.05R
SILOAM SPRINGS CLOUDY    67  66  97 CALM      30.04R FOG
HARRISON AR    CLOUDY    66  65  96 CALM      30.07R
NEAR YELLVILLE CLOUDY    73  66  78 E8G17     30.06R

......KANSAS AND MISSOURI......

CITY           SKY/WX    TMP DP  RH WIND       PRES   REMARKS
KANSAS CTY INT PTCLDY    64  63  96 NE5       30.03S
DOWNTOWN KC    CLOUDY    68  62  81 CALM      30.01F
COLUMBIA       LGT RAIN  65  63  93 NE6       30.03F
SEDALIA        CLOUDY    66  65  96 SE3       30.02S
ST JOSEPH      CLOUDY    65  65 100 NE7       30.03F
ST LOUIS       CLOUDY    74  67  78 CALM      30.05R
SPIRIT OF STL  CLOUDY    71  68  90 E3        30.03S
KIRKSVILLE     CLOUDY    70  65  84 E9        30.04S
WICHITA        CLOUDY    62  58  86 E3        30.06R
TOPEKA         CLEAR     63  63 100 CALM      30.04R FOG
OLATHE         PTCLDY    64  63  96 N3        30.02S

......TENNESSEE......

CITY           SKY/WX    TMP DP  RH WIND       PRES   REMARKS
MEMPHIS        MOCLDY    75  69  81 E12       30.05R
NASHVILLE      CLOUDY    69  66  90 W7        30.16R

......ARKANSAS.......

CITY           SKY/WX    TMP DP  RH WIND       PRES   REMARKS
FAYETTEVILLE   CLOUDY    65  64  97 CALM      30.05R
FT SMITH       CLOUDY    70  67  90 SW3       30.01R
LITTLE ROCK    TSTM      74  69  85 SE10      30.03R

......OKLAHOMA.......

CITY           SKY/WX    TMP DP  RH WIND       PRES   REMARKS
TULSA          CLOUDY    69  64  84 NW7       30.01R
PONCA CITY     CLOUDY    63  58  83 NE6       30.05R
MCALESTER      CLOUDY    68  66  93 CALM      30.01F
OKLAHOMA CITY  CLOUDY    63  60  90 E5        30.04R

......IOWA............

CITY           SKY/WX    TMP DP  RH WIND       PRES   REMARKS
DES MOINES     CLOUDY    62  56  80 E6        30.08R
QUAD CITIES    MOCLDY    61  54  77 E17       30.11R

......ILLINOIS........

CITY           SKY/WX    TMP DP  RH WIND       PRES   REMARKS
QUINCY         CLOUDY    70  64  81 SE3       30.07R
CHICAGO        CLOUDY    48  42  80 N8        30.19R





USA.gov is the U.S. government's official web portal to all federal, state and local government web resources and services.